Location: Caltech
(34.1382°N, 118.1253°W)
Time: 01:02:44
(UTC-07:00)

Cosmos 1408 Rocket - Visible Passes

Search period start: 29 August 2014 00:00
Search period end: 08 September 2014 00:00
Orbit: 603 x 633 km, 82.6° (Epoch: 26 August)

Date Brightness Start Highest point End Pass type
(mag) Time Alt. Az. Time Alt. Az. Time Alt. Az.
29 Aug 4.2 20:24:54 10° NNE 20:28:50 33° E 20:30:41 23° ESE visible
29 Aug 6.2 22:03:50 10° NW 22:06:19 15° W 22:07:50 13° WSW visible
30 Aug 3.4 20:41:35 10° N 20:45:54 68° E 20:48:09 27° SSE visible
31 Aug 4.0 20:58:37 10° NNW 21:02:53 58° W 21:05:43 20° SSW visible
01 Sep 5.0 19:39:00 10° NNE 19:41:56 18° ENE 19:44:51 10° ESE visible
01 Sep 5.4 21:16:03 10° NNW 21:19:45 28° W 21:23:23 10° SSW visible
02 Sep 4.2 19:55:09 10° NNE 19:59:06 34° E 20:02:59 10° SE visible
02 Sep 6.4 21:34:09 10° NW 21:36:33 15° W 21:38:57 10° WSW visible
03 Sep 3.4 20:11:50 10° N 20:16:09 69° E 20:20:25 10° SSE visible
04 Sep 4.2 20:28:53 10° NNW 20:33:07 57° W 20:37:19 10° S visible
05 Sep 5.6 20:46:19 10° NNW 20:50:00 28° W 20:53:39 10° SSW visible
06 Sep 6.5 21:04:28 10° NW 21:06:48 14° W 21:09:07 10° WSW visible
07 Sep 3.5 19:42:05 10° N 19:46:24 71° E 19:50:40 10° SSE visible
